Wind_Speed
17 17 18 18 18 18 18 18 18 19 19 19 19 18 18 18 18 19 18 17 17 18 18 18 18 18 17 16 15 14 16 17 20 22 14 9 14 18 16 14 14 17 21 24 26 25 23 20 17 16 15 13 11 7 5 9 11 12 13 14 12 8 4 1 3 5 8 3 5 13 9 10 9 14 16 11 10 12 12 4 3 5 3 9 15 18 21 24
17 17 17 17 17 17 18 18 18 18 18 19 19 18 18 18 18 18 19 18 17 17 18 18 18 19 19 17 16 15 15 15 17 16 8 10 17 16 13 12 13 16 19 22 24 25 24 21 19 17 16 14 11 9 7 9 13 15 16 18 13 6 5 3 3 8 7 3 6 9 6 10 12 17 16 11 14 15 13 11 12 11 10 13 15 19 23 23
17 17 17 17 17 17 17 17 18 18 18 18 18 18 18 18 18 18 18 18 17 17 17 18 19 19 19 18 17 16 15 14 14 10 8 15 19 16 15 14 13 15 16 19 22 24 23 21 20 18 17 15 12 10 8 9 13 16 17 20 15 8 9 6 6 8 5 5 9 7 8 12 12 16 15 14 16 16 16 17 20 15 9 14 13 18 24 23
18 18 18 18 18 18 18 18 18 18 18 18 18 18 18 18 18 18 18 18 17 17 17 18 19 19 19 19 19 17 16 15 14 9 12 20 19 17 17 14 13 14 14 18 22 23 23 21 21 19 17 16 13 10 10 9 12 16 17 16 14 12 9 6 7 6 5 11 12 10 11 9 10 13 14 16 16 15 15 15 18 11 4 11 12 17 23 24
19 19 19 19 18 18 18 18 18 18 18 18 18 17 18 18 19 18 18 18 17 17 17 18 19 19 19 19 19 19 17 15 13 7 10 18 19 16 15 14 14 13 14 19 23 24 24 23 21 19 18 17 15 13 13 13 11 15 17 10 10 13 9 9 9 6 6 9 11 11 10 8 8 11 12 13 14 13 13 13 12 6 3 8 14 18 23 24
21 21 21 20 20 20 20 20 19 19 19 19 19 18 18 18 19 19 18 18 18 17 17 17 19 19 19 19 19 19 18 15 13 9 6 13 18 17 15 15 15 14 16 19 23 25 26 25 23 20 19 18 18 17 14 15 15 17 17 12 13 14 11 12 9 6 8 6 8 7 6 7 9 10 7 7 11 9 10 12 7 6 6 7 14 18 22 24
23 23 23 23 22 22 22 22 21 21 20 20 20 19 18 18 19 19 18 18 18 17 17 17 18 19 19 20 19 19 19 15 14 14 9 10 15 18 18 17 16 16 16 19 22 26 27 27 26 21 19 19 20 19 14 13 16 19 18 14 15 14 11 11 8 7 7 6 7 7 3 9 13 12 5 8 13 8 12 14 7 7 7 9 13 15 19 21
24 24 24 24 24 24 24 24 23 23 22 22 21 20 19 19 19 20 19 19 18 18 17 17 18 18 19 19 19 20 17 13 15 17 12 10 13 16 19 19 18 17 16 16 19 24 26 28 27 22 20 20 18 18 17 16 18 21 20 16 15 13 13 12 10 8 8 9 7 7 6 10 12 10 6 12 14 10 15 14 8 9 8 9 12 14 17 19
24 25 25 25 25 25 26 26 25 25 24 24 23 22 21 20 20 20 20 19 19 19 18 18 18 18 19 19 21 20 13 10 16 17 14 10 11 14 18 20 19 18 15 15 17 21 27 28 26 24 21 18 17 16 16 17 21 22 21 18 16 14 15 16 12 9 9 11 9 7 9 10 10 9 10 15 15 15 17 13 8 7 8 9 11 14 16 19
25 25 26 26 26 26 26 26 26 26 26 26 25 24 23 22 21 21 21 20 20 19 19 19 19 19 18 19 21 18 10 11 15 15 14 12 12 14 16 19 20 19 17 15 17 21 26 28 24 22 19 16 17 17 16 17 19 19 21 20 18 14 15 19 15 11 9 10 10 9 10 11 10 10 16 19 16 17 15 12 8 6 8 8 9 12 14 17
25 26 26 26 26 27 27 27 27 27 27 27 27 26 25 24 23 22 22 21 21 20 20 20 20 20 19 20 21 14 10 16 17 15 15 13 12 12 15 18 19 20 19 17 17 19 23 25 21 18 20 20 18 17 19 20 18 18 20 21 21 17 16 19 18 15 11 9 9 9 11 10 10 12 19 21 17 16 15 12 8 7 8 8 9 11 11 15
25 26 26 26 26 26 27 27 27 27 28 28 28 27 26 25 24 24 23 23 22 21 21 20 21 21 21 23 17 8 11 18 20 19 18 16 12 12 16 17 17 19 19 19 17 17 22 24 20 18 21 19 18 18 19 21 20 20 20 21 22 20 19 18 19 19 15 11 10 11 14 13 13 13 18 23 18 18 19 14 9 8 9 9 11 12 11 13
27 27 27 27 27 27 27 27 27 27 27 28 28 28 27 26 25 25 25 24 23 23 22 22 23 22 25 25 12 8 15 18 21 23 21 17 12 13 16 16 17 18 18 19 17 17 22 25 21 21 20 16 18 17 16 17 17 20 21 22 21 21 22 21 21 22 19 16 14 15 17 17 16 14 20 26 20 20 22 17 12 10 9 10 11 12 11 12
27 28 28 28 28 28 28 27 27 26 26 27 28 28 28 27 26 26 26 25 25 24 24 23 24 23 28 25 11 13 19 19 23 24 22 18 10 12 15 16 17 17 18 19 18 19 23 25 21 21 22 21 20 16 17 17 16 17 19 22 22 22 24 25 24 23 22 21 18 17 20 20 18 18 24 29 22 20 24 20 16 13 11 10 10 12 11 10
28 28 29 29 30 29 29 29 29 28 27 26 26 27 28 28 27 27 27 26 25 25 25 25 25 26 29 24 14 17 21 22 23 20 19 19 13 13 13 15 16 16 18 18 19 21 22 22 21 24 24 23 21 19 21 21 19 18 18 20 23 24 23 23 23 23 21 21 21 20 21 23 20 20 28 31 25 22 25 24 18 15 14 11 10 11 10 10
29 29 29 30 30 30 31 31 31 30 29 27 26 25 25 26 27 28 27 26 26 25 26 27 26 27 28 23 16 18 20 19 17 16 19 19 17 17 13 13 15 16 17 17 20 21 20 19 21 24 24 22 23 23 23 23 21 21 22 22 21 23 24 21 21 24 21 20 25 23 21 23 16 17 32 34 25 23 26 25 20 17 16 12 10 11 11 12
28 28 29 29 29 30 31 32 33 32 31 30 29 26 24 24 25 27 27 26 25 25 26 28 28 29 26 21 16 13 14 14 14 18 22 20 18 17 14 13 15 16 18 16 18 21 19 19 22 23 25 24 25 24 23 26 26 23 24 25 22 21 24 23 22 24 24 23 27 25 20 22 15 15 32 33 22 22 25 24 21 18 17 14 11 11 13 13
28 29 28 28 29 30 30 32 33 34 34 34 32 30 28 25 24 26 26 25 25 25 26 27 29 28 23 21 20 15 12 11 13 18 21 20 19 18 17 16 17 16 18 18 18 21 21 21 22 23 26 28 28 30 30 29 27 24 23 25 24 22 23 25 23 19 24 26 28 27 21 20 19 17 28 29 21 21 22 22 20 18 16 16 15 13 14 15
29 29 29 28 28 29 30 31 32 34 36 36 36 33 29 25 23 24 24 22 24 24 23 24 29 29 21 17 18 18 16 10 10 15 20 21 20 20 20 19 21 19 20 23 23 24 24 23 25 28 32 35 35 36 35 28 23 23 23 23 25 25 23 25 26 19 21 29 30 29 25 19 20 20 26 26 23 22 21 19 19 20 20 19 20 18 15 16
29 29 30 29 28 29 29 30 32 34 36 37 38 36 33 31 27 27 26 22 21 23 25 26 30 34 27 19 16 18 20 16 13 15 18 21 21 22 23 23 23 23 25 28 26 26 26 26 32 38 38 36 35 35 32 27 22 23 24 23 23 26 25 24 28 24 21 31 32 27 27 22 21 22 27 27 26 26 24 21 24 27 25 24 22 20 17 17
29 29 29 29 28 29 29 30 31 33 35 37 40 40 41 39 36 35 35 28 21 21 27 28 31 36 32 24 19 18 20 21 21 19 17 20 23 25 27 27 27 29 30 29 25 24 26 32 39 41 36 32 30 31 30 27 25 26 27 26 23 25 26 23 25 26 22 29 32 29 29 26 23 23 28 32 30 30 28 24 28 30 27 26 25 20 18 17
28 28 29 29 28 28 28 28 29 31 32 34 38 40 39 39 37 37 41 40 29 22 28 30 33 39 34 26 22 21 24 25 23 22 19 20 26 30 30 31 33 33 31 29 27 26 30 40 43 37 32 30 27 27 30 29 28 29 29 30 28 25 24 24 24 25 23 28 31 30 30 28 26 24 28 35 33 32 32 29 28 29 26 27 27 22 18 18
29 29 29 29 28 27 28 27 27 29 30 33 35 36 36 36 35 35 40 45 39 28 28 30 32 36 34 29 25 26 31 30 26 24 22 24 29 30 31 34 34 33 32 33 34 34 36 41 40 33 29 29 29 28 29 30 30 31 31 31 32 29 25 23 24 24 22 26 28 27 28 29 29 26 29 34 33 33 34 31 28 27 26 24 22 21 19 18
31 30 29 29 28 27 27 27 25 26 28 31 32 33 33 32 33 36 38 45 45 31 22 26 31 33 32 26 24 30 34 31 30 27 24 28 31 31 32 34 35 34 34 36 37 39 40 33 27 30 31 29 31 31 30 31 33 33 33 32 32 32 28 25 23 22 22 24 26 26 27 31 33 30 30 32 33 36 36 33 31 29 27 23 19 20 19 17
31 31 30 30 29 27 27 27 24 24 26 27 28 29 30 30 31 34 37 42 39 24 13 16 19 20 22 22 26 33 34 33 33 29 27 29 31 34 34 31 34 37 35 35 37 40 41 30 18 22 31 32 32 33 33 33 33 34 35 34 33 31 30 28 25 22 23 24 29 31 21 22 33 33 32 33 33 37 38 36 36 32 29 28 23 21 20 18
32 32 31 30 30 28 26 27 25 24 25 25 26 26 26 28 28 29 32 33 26 18 14 7 4 5 10 22 29 31 32 38 36 28 28 30 30 32 34 33 34 36 35 33 34 38 40 34 23 20 27 32 34 35 35 34 32 33 34 35 34 32 30 30 29 25 22 20 26 35 21 13 27 32 30 32 33 36 39 38 38 36 32 31 27 23 23 21
32 32 32 30 31 30 27 26 26 24 24 24 25 25 23 23 23 24 23 18 13 13 15 11 8 9 8 11 24 31 29 32 35 34 31 31 31 33 35 36 33 33 33 30 32 38 38 35 32 27 27 32 36 37 35 35 35 32 30 30 33 34 32 31 30 28 24 20 19 35 34 19 23 32 29 29 31 32 38 43 41 39 36 31 28 27 25 22
32 32 32 30 30 30 28 27 26 24 24 24 25 24 20 18 17 16 12 5 6 11 12 9 6 5 9 8 18 30 27 20 22 32 35 32 31 35 38 38 34 31 32 33 36 37 34 36 36 32 31 33 36 38 34 34 36 32 25 24 28 31 32 33 32 30 28 23 18 27 36 21 17 31 31 28 31 29 34 45 46 42 39 34 32 30 26 21
31 30 30 29 27 27 27 27 26 25 25 24 24 21 18 14 11 9 4 2 7 14 10 5 3 1 8 5 12 22 24 16 10 13 26 35 33 35 39 37 33 28 29 37 37 30 28 32 33 33 35 35 34 33 32 32 34 31 25 23 24 26 30 31 31 33 30 21 18 20 27 16 11 28 34 29 31 29 30 41 46 43 40 37 35 33 28 23
30 30 29 28 26 23 23 23 24 23 22 21 20 17 14 10 7 6 1 4 12 18 13 8 5 2 7 8 5 16 22 20 11 6 17 34 35 34 36 33 31 31 29 33 36 32 27 25 27 33 36 35 31 28 29 31 31 29 26 26 25 24 27 29 31 34 25 14 20 26 24 16 9 24 37 35 33 30 29 36 42 43 41 39 37 34 30 26
30 29 28 28 26 22 20 19 19 19 18 18 15 12 12 9 5 1 3 8 16 20 16 13 11 7 6 11 10 8 18 22 21 13 15 31 36 34 34 31 32 33 30 33 36 34 31 26 27 32 33 32 30 28 28 28 29 29 27 28 25 21 23 25 28 30 16 6 21 31 27 21 12 16 33 39 38 32 29 34 41 42 41 41 40 36 33 29
30 30 29 27 25 22 19 17 17 17 16 15 10 10 13 10 3 3 9 16 16 17 23 25 24 19 15 12 12 12 12 20 24 21 18 26 36 38 37 36 34 33 31 34 32 30 35 37 32 28 29 32 31 30 29 28 31 32 30 30 22 12 12 14 13 16 11 10 22 27 24 22 18 17 25 33 37 32 26 32 41 42 40 41 41 39 36 32
31 31 29 28 25 22 19 16 16 17 15 11 9 13 11 7 3 4 12 18 13 16 27 34 30 27 24 16 11 19 15 14 19 24 24 24 31 38 39 37 33 32 31 28 26 28 32 36 37 33 30 33 35 34 31 32 34 35 35 33 23 9 5 6 5 5 7 14 24 25 21 20 21 26 27 25 30 30 23 25 34 38 39 40 41 40 37 34
33 32 30 28 25 22 19 18 19 18 12 9 13 14 8 5 4 6 11 16 17 22 28 35 32 27 24 17 11 24 21 7 6 15 24 27 29 33 37 40 36 32 29 24 25 28 24 25 38 43 34 31 37 37 32 31 34 37 37 34 31 22 10 4 5 4 2 7 20 25 19 15 20 30 32 24 24 28 23 20 26 31 33 37 41 40 37 33
31 32 32 29 23 20 19 20 23 19 10 11 16 13 8 7 8 12 15 19 21 25 29 31 29 26 22 19 18 25 18 11 16 14 14 23 30 31 32 38 39 34 29 24 26 29 25 26 35 40 35 29 33 37 32 28 31 36 36 33 34 34 21 6 6 10 6 1 10 22 23 21 21 26 30 27 25 29 25 21 26 31 31 32 38 41 38 34
30 31 30 28 25 21 18 18 22 19 11 13 14 11 11 12 13 15 17 21 20 22 28 26 23 23 23 26 30 23 15 20 26 15 5 7 21 31 31 33 35 36 35 30 26 25 25 27 27 30 36 35 30 34 36 31 28 31 37 38 35 34 29 15 7 12 11 2 8 18 23 28 28 24 24 25 27 32 32 29 30 34 35 35 38 42 39 37
31 29 23 25 27 24 22 22 23 19 11 12 11 13 14 13 13 14 15 18 19 19 22 21 18 19 22 28 31 27 26 29 27 20 16 14 7 11 16 23 27 29 33 35 33 26 22 25 24 25 35 38 33 31 35 35 30 30 38 41 31 25 30 24 9 8 9 4 9 21 25 27 27 25 25 27 29 33 36 35 30 31 39 42 41 42 40 38
33 27 20 26 30 29 30 27 21 14 8 8 10 11 11 11 12 14 15 16 18 17 17 17 16 16 20 26 28 29 32 29 26 28 26 17 11 18 19 6 8 8 12 22 34 37 29 23 22 28 33 36 36 33 36 38 36 32 34 37 31 22 25 27 14 5 7 3 6 19 27 28 29 31 32 32 33 34 36 37 34 32 40 46 43 41 41 38
32 23 17 23 23 25 27 20 11 9 4 6 11 10 10 12 12 13 14 14 16 16 16 15 17 17 18 22 26 28 27 24 27 29 23 18 19 20 24 18 6 6 9 3 17 34 39 25 18 26 33 35 37 38 40 43 41 36 30 34 38 29 24 28 21 11 6 3 4 11 15 19 26 33 35 32 31 34 34 35 38 39 38 40 41 43 44 39
32 19 7 7 9 16 16 10 8 10 6 10 13 11 10 13 14 14 14 14 14 16 16 15 17 19 19 19 22 24 24 22 25 25 20 22 25 16 12 19 15 3 12 7 5 19 38 36 25 26 31 36 41 43 44 45 45 42 35 34 39 33 25 25 25 23 14 3 2 5 5 12 20 26 31 31 28 31 33 32 35 41 41 38 37 41 45 39
33 17 1 5 14 16 13 6 6 11 9 10 11 10 10 14 17 16 15 14 13 13 16 16 16 18 18 18 18 20 24 24 23 22 21 22 22 16 11 19 24 15 4 5 8 4 15 28 32 33 29 32 43 46 45 44 45 45 39 33 36 36 29 18 15 26 28 14 6 4 4 9 14 18 26 29 27 28 33 31 30 36 41 40 36 39 43 37
35 17 1 6 12 16 15 6 5 10 9 9 10 11 12 15 15 15 15 14 11 12 14 15 16 16 15 17 18 19 23 24 21 19 19 18 20 22 19 20 25 23 24 18 10 8 12 16 27 35 34 28 35 41 42 41 41 44 40 33 33 37 37 23 11 20 28 23 19 13 7 7 8 10 22 29 25 24 29 29 26 29 35 37 37 39 42 35
38 20 1 5 9 14 13 8 8 10 10 12 13 13 13 13 13 14 13 12 11 13 14 13 15 15 15 16 18 19 21 22 18 17 19 20 24 26 22 21 23 22 29 26 12 6 7 13 18 27 34 33 31 36 43 42 39 41 43 38 34 35 38 31 19 20 25 24 22 13 5 6 8 4 16 26 21 23 28 25 20 24 28 31 35 39 38 32
41 26 5 7 14 14 10 10 11 12 13 15 14 13 13 12 12 13 12 12 12 14 14 13 14 15 16 17 17 18 19 18 16 18 22 26 31 30 23 20 22 20 25 24 18 17 12 10 10 12 16 21 22 25 36 44 42 41 42 43 39 33 34 32 25 21 20 24 25 12 3 9 7 6 18 21 19 24 26 18 17 24 26 27 33 35 33 27
42 33 17 11 10 5 4 7 9 11 13 14 14 14 13 12 11 12 12 12 11 10 11 13 14 16 18 17 16 15 15 14 16 20 24 28 35 37 30 22 18 17 23 26 22 20 17 14 12 9 5 7 7 7 20 40 45 39 38 42 41 35 32 33 30 23 16 20 28 21 9 11 13 10 17 19 19 23 20 15 19 23 23 25 31 33 31 28
40 34 28 25 11 5 3 5 7 9 9 13 17 16 14 14 13 12 11 10 10 10 12 15 16 16 16 16 16 16 14 14 16 19 25 30 34 37 34 25 17 17 22 25 18 11 13 15 16 14 13 13 9 4 11 35 45 38 33 37 41 41 35 32 33 27 18 18 26 27 19 15 18 17 14 14 16 18 17 17 22 23 24 27 30 32 32 30
38 31 26 26 15 3 4 6 10 12 8 14 19 17 16 17 15 12 10 10 13 15 17 17 15 13 14 17 17 16 15 16 17 18 23 27 31 36 37 28 20 22 23 21 17 13 15 15 14 14 16 20 17 8 7 23 40 44 37 33 37 43 40 34 34 32 24 17 20 25 23 18 21 21 17 15 14 14 16 20 22 20 24 30 30 30 34 32
37 30 20 17 17 13 12 14 13 12 11 14 15 14 15 16 14 12 11 12 14 15 17 19 16 14 15 17 18 18 18 19 19 18 20 23 27 33 35 28 19 24 26 18 18 20 20 14 12 14 14 17 20 14 8 8 21 35 39 36 34 40 45 40 33 33 31 21 15 21 24 19 18 20 18 15 15 15 18 22 20 17 23 32 28 24 30 35
36 31 21 15 16 15 15 16 16 13 12 13 11 11 14 16 15 12 11 14 15 14 16 19 17 16 17 17 17 18 18 18 20 21 20 20 22 27 30 26 17 16 19 18 17 23 23 18 15 16 12 11 17 20 13 9 7 16 31 39 37 35 43 44 33 29 31 27 19 20 22 18 16 18 18 15 14 17 22 23 20 17 21 27 25 21 28 36
34 29 23 19 17 14 13 14 14 14 14 12 10 11 11 12 16 16 14 16 18 17 17 18 18 17 19 19 18 18 17 18 22 22 19 17 16 19 23 25 22 18 18 21 16 20 24 24 21 20 14 7 15 22 16 12 10 7 17 31 35 33 37 44 40 30 26 27 24 20 19 17 17 19 19 16 16 22 26 23 20 19 18 18 21 27 33 37
32 25 22 21 19 16 13 13 14 16 16 13 12 13 12 12 15 18 19 16 15 19 20 19 19 19 20 21 20 18 18 18 19 19 17 17 17 18 19 21 24 26 25 26 20 18 24 26 25 26 20 7 10 20 16 11 10 10 9 18 27 26 27 39 44 36 27 27 26 22 22 20 16 17 20 20 23 26 27 25 24 25 23 19 21 30 37 38
30 23 19 19 19 18 15 13 15 17 16 15 15 15 16 18 16 17 20 17 13 16 19 20 21 21 22 24 21 19 19 17 17 18 17 17 17 19 21 20 20 23 26 28 24 18 22 25 27 28 22 12 2 9 15 10 9 10 11 15 24 20 17 32 44 38 28 26 28 24 20 19 18 20 26 27 26 29 30 29 29 29 26 22 22 26 33 35
Wind_Direction
321 320 318 318 316 315 315 313 311 309 309 309 309 309 307 305 301 299 297 297 299 300 300 297 294 291 288 286 280 274 265 254 248 246 238 211 214 224 223 219 220 217 212 208 208 208 206 207 206 201 203 206 202 193 175 164 188 231 249 265 276 295 304 318 339 183 168 343 150 145 123 143 139 126 140 149 136 116 106 103 182 145 132 164 171 170 163 160
323 321 320 319 318 318 316 314 312 309 308 307 308 307 306 305 303 300 297 296 296 296 297 296 294 292 289 287 285 281 273 264 254 244 223 217 223 225 225 216 215 219 214 210 210 209 206 204 203 204 204 206 197 176 177 169 182 212 232 253 265 288 282 224 203 187 179 298 167 144 118 138 143 145 148 146 133 128 140 162 181 184 167 153 162 174 172 169
325 323 322 321 320 319 316 315 312 310 309 308 307 307 305 304 302 300 298 296 294 291 292 292 292 291 290 288 287 284 281 275 265 244 209 220 221 218 223 216 213 218 213 210 210 209 207 202 201 205 204 203 194 181 184 176 190 206 218 240 253 266 272 252 191 192 167 158 163 143 128 131 152 164 154 145 139 151 165 163 180 198 172 155 161 174 177 176
326 325 323 322 321 319 317 315 312 311 309 308 307 307 305 303 301 299 298 297 293 289 286 287 288 289 289 289 288 286 286 284 274 246 213 220 219 214 219 218 215 216 210 208 208 206 203 199 198 200 203 203 193 186 190 188 197 211 222 233 240 248 266 263 217 203 149 151 157 148 145 151 181 180 165 161 157 168 181 177 188 202 178 178 177 172 180 183
323 322 321 321 319 318 316 314 313 311 309 307 307 306 304 302 300 298 297 296 293 289 284 282 284 285 287 287 287 287 287 286 282 261 213 219 224 218 214 216 215 211 207 206 205 203 200 198 195 193 201 199 189 191 192 197 204 214 232 242 234 245 257 261 255 222 186 162 153 141 144 169 196 189 181 180 181 184 191 196 190 173 157 188 183 174 180 188
320 319 318 317 316 314 313 311 311 309 308 307 305 305 303 301 299 298 296 294 292 289 284 279 278 280 283 284 284 285 281 279 286 286 236 219 224 220 212 213 213 209 206 205 203 202 199 196 191 188 197 193 187 197 191 194 206 215 230 237 235 245 249 254 265 214 197 183 155 115 117 176 190 186 182 190 194 189 193 206 190 141 133 157 179 179 180 189
320 318 316 315 314 312 310 308 307 306 305 304 303 303 301 300 297 295 295 293 291 288 285 279 276 275 277 280 282 281 279 282 283 275 254 220 220 220 216 213 213 211 208 206 202 202 199 195 190 187 199 199 189 196 194 196 210 221 226 226 233 252 259 253 257 223 202 198 168 106 118 191 189 187 180 185 190 186 191 206 200 153 142 147 174 182 180 189
321 319 318 316 314 312 309 307 305 304 302 300 300 299 298 298 295 294 293 291 289 287 284 279 274 272 271 275 277 276 283 287 276 270 262 234 220 221 221 217 215 212 210 209 205 203 201 197 190 186 202 207 197 192 191 207 218 222 227 228 228 243 256 257 264 242 205 203 178 128 172 182 182 192 179 175 181 191 196 200 189 159 151 151 167 175 177 184
324 322 320 317 316 314 311 308 306 304 301 299 297 295 295 294 292 292 291 289 288 286 284 279 275 271 268 269 270 274 283 276 267 272 271 251 226 220 223 220 216 213 211 210 207 204 202 199 190 188 201 210 213 202 189 214 226 223 232 236 226 228 243 251 264 257 218 204 176 158 204 194 193 199 170 169 176 190 201 204 192 155 151 162 165 167 170 177
327 325 322 320 319 316 313 311 308 305 302 299 296 294 292 290 290 288 288 287 284 283 282 279 275 271 267 263 265 270 271 258 256 262 264 257 235 220 220 222 219 214 211 209 208 206 203 198 190 188 198 208 221 220 205 217 227 229 243 244 231 224 233 244 255 258 240 214 182 176 211 207 209 203 171 170 179 190 203 204 185 143 145 164 167 165 167 176
335 332 328 326 323 320 316 313 310 308 304 301 297 294 291 288 287 284 284 283 282 282 279 277 275 271 267 260 261 262 252 252 251 250 253 252 241 226 220 219 219 217 210 210 209 208 207 195 184 190 203 208 214 224 223 221 224 233 246 249 239 227 224 239 252 258 251 228 203 193 214 214 214 209 179 177 187 190 201 201 170 145 150 152 160 163 166 176
346 343 340 336 333 329 323 318 314 310 306 303 299 296 292 289 286 282 281 279 278 278 276 275 273 270 266 259 258 252 241 249 252 251 249 245 237 229 224 213 212 216 210 211 208 206 207 188 175 197 208 211 214 222 226 223 230 235 239 247 244 230 221 230 239 248 251 237 224 214 224 223 216 216 186 182 189 180 188 199 181 170 162 152 158 161 165 175
353 351 349 346 344 341 335 329 323 316 311 306 301 298 294 291 286 281 278 276 276 275 274 272 270 270 265 259 252 237 239 243 250 253 253 250 226 209 221 213 203 208 207 209 205 203 203 183 176 200 205 213 223 225 219 215 233 240 239 246 246 234 227 233 231 228 232 232 226 217 223 224 213 211 189 185 189 177 181 194 196 195 178 166 164 163 170 180
354 353 352 351 350 347 343 340 335 328 321 312 305 300 296 293 288 283 277 274 273 271 272 270 269 268 263 261 253 243 240 236 245 251 257 260 234 198 213 213 202 202 203 204 202 201 196 182 185 204 206 213 219 224 221 223 240 240 240 241 242 242 233 238 236 217 215 222 221 215 223 229 215 206 192 186 190 181 178 187 200 205 191 184 172 166 176 185
351 351 351 351 351 350 347 345 342 338 333 325 316 306 299 294 289 284 279 274 271 269 269 267 267 266 263 263 255 245 239 235 244 252 255 259 246 223 222 216 205 201 199 199 200 196 188 186 197 208 212 214 216 224 229 235 241 231 236 238 233 238 238 242 236 215 214 216 213 214 225 234 228 212 194 186 194 186 175 184 200 206 198 200 189 174 182 190
348 349 350 350 351 351 349 348 346 343 340 335 328 319 309 299 291 285 280 276 271 267 267 265 264 264 265 267 258 248 248 247 251 250 247 247 239 228 229 226 210 200 197 194 196 190 182 194 208 213 215 215 218 225 233 242 241 228 232 236 227 229 234 244 234 218 221 214 204 208 221 227 224 205 191 188 197 188 178 187 198 206 203 207 201 178 181 191
345 347 349 349 349 350 350 350 349 348 345 341 337 330 321 311 299 288 282 278 273 267 264 263 262 261 262 263 255 243 245 243 233 233 237 237 233 222 212 223 221 206 199 192 191 188 184 198 211 217 217 217 218 220 229 237 235 228 226 227 229 227 224 235 235 223 223 211 198 202 216 224 224 202 190 188 193 186 183 191 194 202 205 208 210 189 190 197
344 346 348 347 347 348 350 350 351 352 351 349 346 339 332 324 312 296 286 280 275 268 263 261 260 259 258 254 247 234 230 227 215 224 231 228 226 215 194 205 227 218 203 201 200 194 191 199 210 217 218 218 214 213 220 224 222 223 221 218 225 231 226 230 233 225 218 207 196 198 205 223 233 210 188 187 191 188 188 194 194 199 202 205 217 215 207 207
341 343 346 346 344 345 348 348 349 351 352 353 352 346 337 326 316 303 292 284 276 268 263 260 255 251 247 245 240 224 216 216 217 222 225 220 216 208 186 191 219 220 206 207 208 201 196 201 209 215 218 216 212 211 216 219 215 215 218 216 219 227 232 231 230 231 218 200 192 197 199 215 232 203 182 184 184 183 191 195 188 193 201 206 218 223 219 211
337 338 340 342 342 342 345 345 345 347 349 351 350 348 344 336 328 314 302 290 280 272 262 258 256 251 244 240 237 220 203 196 214 227 226 219 210 201 186 187 209 213 208 208 207 204 200 206 213 214 216 215 214 214 215 219 217 216 223 226 219 219 227 231 231 234 221 195 188 195 200 211 227 204 183 184 183 183 193 192 183 193 207 212 220 225 219 212
333 334 335 337 338 338 341 342 341 343 346 347 348 351 353 349 341 328 313 294 277 275 267 257 255 253 244 232 228 222 205 195 203 214 222 217 204 196 187 187 200 205 207 207 207 208 206 213 217 214 215 215 216 218 216 217 218 222 231 236 231 221 221 229 235 238 226 202 192 193 200 208 217 210 190 185 191 196 203 206 200 206 219 222 225 223 210 206
330 331 330 331 334 333 335 339 338 339 342 344 348 353 354 350 345 336 322 305 288 280 273 260 252 252 247 231 221 218 215 210 206 204 210 213 201 196 189 189 200 204 204 202 203 207 210 219 219 214 215 214 215 219 218 218 219 225 233 240 246 238 229 230 235 244 232 204 194 192 198 205 208 215 202 191 201 211 216 221 217 216 223 221 221 216 202 202
329 330 329 329 331 330 331 334 335 336 339 342 347 352 351 347 342 333 326 315 303 295 285 269 255 253 249 236 219 216 222 220 214 206 200 206 204 198 192 193 201 205 203 201 201 203 211 223 221 213 214 214 214 216 216 219 221 225 230 238 245 243 241 238 231 243 238 208 198 197 202 208 209 216 213 204 210 218 219 221 219 219 219 214 216 214 206 206
330 330 330 328 329 330 328 330 334 334 337 342 345 349 347 345 341 332 328 321 315 316 304 276 258 253 252 242 221 219 228 226 219 209 199 206 207 200 197 198 202 205 204 204 203 206 214 225 223 212 213 214 215 214 214 217 220 223 226 230 239 239 240 244 236 235 236 222 208 202 204 209 209 212 212 210 214 216 215 214 212 215 216 212 217 218 211 212
332 331 331 328 327 329 328 328 334 334 337 341 343 346 345 344 342 335 330 325 327 345 340 286 267 261 252 237 221 217 225 228 221 209 199 207 211 202 199 200 205 207 206 206 208 213 218 222 226 218 211 212 216 215 213 214 218 222 223 223 229 236 238 244 249 238 228 225 211 201 202 206 207 210 210 209 213 212 210 208 206 209 211 209 215 218 209 206
333 332 332 330 327 329 329 329 331 334 336 338 341 344 345 345 343 339 335 326 332 10 20 346 328 312 250 227 219 213 221 228 222 209 200 207 216 210 200 201 209 210 208 207 210 218 221 217 220 225 214 210 214 217 215 214 218 222 222 221 223 231 238 242 253 255 239 233 213 200 201 203 200 209 216 213 215 215 210 207 206 207 208 208 215 218 207 200
334 333 333 331 328 328 329 328 329 333 336 335 340 343 346 348 344 343 344 325 321 12 26 27 30 13 344 258 221 204 217 230 219 211 203 201 212 214 206 203 208 211 206 205 214 220 221 216 214 220 218 213 213 217 216 212 219 224 221 223 224 228 236 239 250 260 256 259 235 203 202 210 201 203 212 215 219 221 214 209 207 206 207 212 222 221 209 202
334 333 333 331 330 329 329 328 328 331 332 334 342 346 349 350 344 350 358 325 331 16 23 17 7 16 21 322 239 210 212 232 227 216 207 199 205 212 212 208 206 212 205 203 216 220 219 217 212 213 218 216 215 217 216 213 218 223 219 220 226 229 234 238 246 257 260 265 260 213 200 205 205 201 204 210 220 227 215 208 208 209 209 214 221 220 212 205
333 333 331 330 331 329 327 327 326 329 334 340 348 350 353 352 346 2 15 267 1 13 3 341 275 333 49 16 265 234 220 225 246 236 210 202 205 209 215 213 207 213 212 209 219 223 221 224 216 211 217 220 220 220 217 216 218 220 219 218 224 229 232 236 242 253 261 262 266 238 206 203 210 201 202 204 212 222 218 211 210 212 213 214 216 217 215 206
334 333 331 331 331 328 325 326 330 333 338 348 353 352 1 9 353 0 197 250 343 348 325 289 256 306 32 31 300 247 234 223 217 264 223 205 204 210 217 219 212 215 221 219 223 225 224 230 223 216 218 219 223 224 218 217 216 215 218 222 227 229 227 230 235 246 260 260 258 256 237 241 241 198 203 207 206 209 214 215 212 209 213 216 213 215 219 214
335 334 334 333 330 327 324 322 327 330 340 353 357 1 16 20 2 344 234 291 326 329 316 300 290 294 338 357 354 279 250 233 211 225 231 205 202 207 211 215 215 217 226 227 226 227 226 228 225 221 220 217 220 223 218 215 214 212 215 220 228 232 224 220 223 231 246 253 250 255 253 260 265 208 209 211 207 206 211 219 218 212 213 216 213 215 220 218
337 336 337 334 330 329 324 318 326 341 356 5 14 26 21 7 351 225 288 317 326 331 337 330 313 307 314 326 350 346 285 244 227 226 225 207 204 206 206 208 210 213 223 227 224 224 227 227 225 223 222 216 215 219 214 208 209 210 211 214 218 226 223 214 208 217 229 237 242 251 256 258 261 248 229 214 206 210 215 218 223 222 217 217 217 217 218 216
338 338 337 336 333 332 328 327 343 0 7 17 40 36 17 347 330 275 309 325 314 313 338 339 319 305 312 313 335 351 326 253 237 235 230 219 209 208 210 210 211 214 219 224 223 220 224 227 225 224 223 215 212 215 208 200 202 206 209 209 203 196 205 206 201 210 226 230 231 240 254 255 251 250 244 225 209 214 220 215 222 229 224 222 223 219 215 212
338 338 337 340 338 331 333 343 356 1 1 26 38 19 344 295 325 320 312 315 295 297 327 339 328 313 308 301 334 356 343 287 268 265 245 233 219 212 213 212 213 219 220 222 225 221 220 223 221 219 220 216 212 212 208 200 200 204 207 207 205 206 204 182 201 198 166 219 220 222 234 245 243 239 240 241 222 216 220 214 223 234 227 225 225 217 210 210
340 337 336 342 339 334 342 349 354 352 348 21 23 359 316 292 340 347 324 317 311 309 321 332 333 328 314 304 335 358 350 336 344 322 252 233 228 219 214 212 212 217 222 224 227 226 225 229 226 219 216 217 214 211 208 204 201 202 206 210 211 211 210 206 217 204 180 137 213 211 220 230 241 244 241 245 236 221 217 217 229 236 229 225 221 212 211 217
342 338 337 339 336 339 347 349 351 345 343 16 7 333 315 305 325 344 326 320 327 325 326 331 333 331 325 327 338 342 330 337 342 324 280 264 241 223 216 217 216 218 222 224 226 226 229 234 232 222 216 215 215 211 207 205 202 197 201 211 214 209 211 219 216 197 194 237 228 218 225 227 232 242 238 233 232 226 220 222 234 236 229 225 218 209 212 221
346 343 337 336 338 340 340 337 339 334 346 15 339 306 322 316 314 331 326 324 331 331 332 331 328 328 327 331 335 331 325 336 341 327 334 349 293 229 222 218 216 223 229 233 236 235 241 245 232 220 216 212 209 210 208 208 207 199 200 207 207 201 212 223 220 182 190 217 221 218 225 224 221 228 229 222 223 226 223 221 225 224 214 208 207 208 214 224
347 348 347 352 350 339 333 333 332 335 358 360 317 305 324 322 315 317 321 331 334 330 329 322 318 324 326 324 323 325 327 328 328 329 337 343 353 16 12 325 223 218 227 241 245 238 243 258 239 220 218 211 206 206 206 209 211 209 204 202 198 194 205 214 215 193 194 204 215 214 219 222 218 219 224 222 219 221 224 220 216 213 206 200 203 210 216 223
348 356 14 15 353 326 331 341 342 356 5 297 311 324 321 322 319 300 304 330 332 325 324 321 319 318 320 318 313 317 323 323 321 325 332 330 328 352 4 358 1 150 160 247 269 242 237 253 255 227 217 208 205 204 203 205 208 212 208 197 199 205 205 204 207 211 206 195 216 215 215 222 225 225 226 226 218 214 219 222 214 211 212 211 211 215 214 216
350 354 39 35 307 293 322 338 327 340 315 277 306 321 315 317 309 294 306 322 317 315 316 316 318 318 317 316 315 316 316 316 321 321 316 314 316 324 358 11 17 127 175 182 244 238 235 241 253 244 220 202 201 205 204 202 201 207 209 195 193 203 208 205 208 214 220 240 206 214 225 227 231 235 234 226 212 204 209 217 214 208 212 215 216 219 216 213
352 352 4 263 272 288 315 316 327 337 306 284 308 315 313 316 308 306 316 312 300 310 313 310 313 316 316 316 318 320 316 316 321 320 313 309 309 311 336 358 356 356 10 212 208 253 259 242 243 250 238 206 201 205 206 203 200 204 210 201 191 194 196 194 200 208 217 236 239 223 265 245 238 245 237 218 200 199 203 209 211 206 208 212 210 216 218 214
355 3 16 261 283 309 324 329 358 340 308 304 325 322 314 315 314 316 317 311 309 310 305 306 313 314 316 318 318 319 319 320 318 316 316 305 289 286 295 322 332 344 360 343 291 312 310 248 235 246 248 228 212 207 206 204 201 203 210 209 199 194 193 193 189 193 204 223 241 253 273 269 284 268 228 209 196 200 202 202 208 206 208 212 209 213 217 213
355 358 316 245 300 319 331 344 343 329 318 319 322 320 315 312 315 317 318 321 323 315 305 307 315 314 313 316 319 321 320 318 317 317 311 289 273 273 281 301 317 341 0 351 326 316 276 229 231 245 247 246 234 212 203 202 200 202 209 212 206 199 197 200 198 189 194 207 225 247 262 246 306 329 192 194 192 193 193 196 203 203 208 215 214 214 213 208
351 352 332 258 297 313 339 348 332 322 323 321 318 320 320 316 312 313 318 321 319 317 311 309 314 310 306 310 317 324 324 319 320 317 304 285 270 265 267 285 305 339 359 347 334 337 316 255 261 266 247 248 242 210 192 192 196 202 207 210 212 208 200 200 202 201 200 202 206 217 255 233 250 98 139 164 181 184 185 188 191 196 207 215 210 206 203 205
347 350 347 327 324 348 9 339 322 321 324 325 328 329 323 316 313 314 318 316 315 318 311 308 314 309 306 313 319 323 324 325 324 313 302 293 279 267 260 272 298 332 347 338 331 327 309 277 276 285 252 232 239 208 184 186 192 202 206 207 212 214 204 196 200 208 205 197 202 211 223 206 196 159 133 135 152 166 172 181 185 192 206 210 203 201 204 211
347 346 341 342 1 116 191 266 268 284 316 334 331 327 321 316 316 319 318 310 303 303 303 307 313 314 316 321 322 323 324 322 320 309 301 300 292 276 262 264 289 313 330 338 341 329 307 288 274 267 264 264 276 303 203 190 188 195 205 206 208 214 213 198 196 208 209 191 197 209 212 186 180 191 179 152 152 160 165 179 188 194 201 200 199 203 207 209
346 345 339 337 343 323 277 290 271 270 306 336 324 315 315 317 318 318 318 317 316 316 313 315 321 321 321 324 323 323 322 317 313 307 303 303 300 285 265 257 275 291 306 339 5 5 345 320 288 276 272 269 268 276 240 202 190 189 199 206 205 208 214 208 198 202 207 197 196 207 208 184 172 185 194 189 185 178 176 186 192 195 196 194 198 205 205 202
343 343 341 327 318 310 312 324 322 310 316 319 313 314 320 319 318 317 318 321 324 324 317 316 324 322 316 322 326 322 322 321 313 309 310 310 308 294 269 249 261 281 291 328 17 20 0 341 317 309 290 266 253 245 265 244 194 187 195 206 208 204 209 215 207 197 203 209 201 200 204 197 186 188 189 182 174 171 181 194 198 191 186 190 197 205 202 199
341 339 340 327 313 308 309 321 332 330 319 314 320 326 322 319 318 319 325 323 318 317 315 314 319 320 316 320 322 320 321 320 310 306 311 315 316 306 283 261 254 267 285 315 11 27 4 345 350 347 322 279 250 229 235 279 241 189 192 203 211 207 204 212 213 200 200 208 208 203 204 204 193 178 170 167 173 183 186 187 189 186 184 191 198 201 198 197
341 335 336 336 332 321 303 305 316 320 321 325 324 313 306 319 327 322 321 320 313 307 307 309 311 314 315 315 315 316 315 310 306 303 304 308 312 311 297 279 268 265 281 306 345 27 9 346 353 1 350 294 238 222 230 274 270 212 186 197 209 212 203 206 214 212 200 197 202 194 177 175 173 163 160 159 162 175 176 164 157 157 160 174 186 189 190 191
340 333 331 333 341 339 313 294 297 306 316 322 316 307 302 312 325 320 312 308 306 306 308 314 316 314 313 311 312 316 310 304 307 305 299 301 304 306 299 285 276 275 281 296 318 4 7 350 356 2 351 324 225 221 238 283 275 247 218 193 201 212 204 200 210 217 205 191 193 181 159 158 165 167 174 167 145 147 157 152 143 139 138 147 168 179 182 183
338 332 328 324 332 341 329 304 295 297 304 311 314 314 312 312 314 314 310 304 301 309 315 320 317 310 308 310 312 316 316 315 315 309 301 297 294 294 294 285 276 277 281 288 303 341 358 347 353 357 339 329 345 221 239 285 304 270 255 207 196 205 205 198 204 213 210 193 190 185 164 156 163 168 172 165 141 132 141 145 145 143 140 142 154 168 177 180
Height
3144 3143 3141 3140 3139 3138 3137 3136 3135 3134 3133 3132 3131 3130 3130 3129 3128 3128 3127 3127 3126 3126 3125 3124 3124 3123 3123 3124 3124 3124 3124 3125 3125 3125 3127 3129 3129 3129 3130 3133 3134 3135 3137 3138 3140 3143 3145 3148 3150 3152 3153 3155 3156 3157 3157 3158 3161 3162 3162 3162 3161 3161 3162 3163 3164 3165 3165 3165 3166 3166 3167 3168 3168 3169 3169 3170 3170 3170 3170 3171 3171 3171 3172 3174 3175 3175 3175 3176
3143 3142 3140 3139 3138 3137 3136 3135 3133 3132 3131 3130 3129 3129 3128 3127 3126 3126 3125 3125 3125 3124 3123 3122 3122 3121 3121 3122 3122 3122 3122 3122 3122 3124 3126 3127 3126 3128 3129 3131 3132 3133 3135 3137 3139 3142 3144 3147 3148 3150 3151 3153 3155 3156 3157 3158 3160 3161 3162 3162 3161 3161 3162 3163 3163 3164 3164 3164 3166 3167 3167 3169 3170 3170 3169 3169 3170 3170 3171 3172 3171 3170 3172 3173 3174 3175 3175 3176
3142 3140 3139 3138 3137 3136 3134 3133 3132 3131 3130 3129 3128 3127 3126 3125 3124 3124 3123 3123 3123 3123 3122 3121 3120 3120 3119 3119 3120 3120 3120 3120 3120 3122 3124 3123 3124 3126 3127 3129 3130 3131 3133 3136 3138 3140 3143 3146 3147 3148 3150 3152 3153 3155 3156 3158 3159 3161 3162 3161 3160 3161 3163 3163 3163 3164 3165 3165 3166 3167 3167 3169 3171 3170 3170 3170 3170 3171 3171 3170 3169 3169 3171 3172 3173 3174 3175 3176
3140 3139 3138 3137 3136 3134 3133 3132 3131 3130 3128 3127 3127 3126 3124 3123 3123 3122 3121 3121 3121 3121 3120 3119 3118 3118 3118 3118 3118 3118 3118 3118 3118 3120 3121 3121 3122 3124 3126 3127 3129 3130 3132 3134 3135 3138 3141 3144 3145 3147 3149 3150 3152 3154 3155 3157 3158 3160 3161 3160 3160 3162 3162 3163 3164 3164 3165 3165 3166 3166 3166 3168 3169 3170 3170 3170 3170 3170 3170 3170 3168 3169 3171 3171 3172 3174 3175 3175
3139 3138 3137 3136 3134 3133 3132 3130 3129 3128 3127 3126 3125 3124 3123 3122 3121 3120 3119 3119 3119 3119 3118 3117 3117 3116 3116 3116 3116 3116 3116 3116 3116 3118 3119 3119 3121 3123 3124 3126 3127 3128 3130 3131 3133 3135 3138 3141 3143 3145 3147 3148 3151 3152 3153 3155 3158 3159 3159 3159 3160 3161 3161 3162 3164 3164 3165 3165 3165 3166 3166 3167 3168 3169 3168 3169 3169 3169 3169 3169 3169 3171 3171 3171 3172 3173 3174 3175
3137 3136 3135 3134 3133 3131 3130 3129 3128 3126 3125 3124 3123 3122 3121 3120 3119 3118 3117 3117 3116 3116 3116 3116 3115 3115 3115 3114 3115 3115 3114 3115 3115 3116 3118 3118 3119 3121 3123 3124 3125 3127 3127 3128 3130 3133 3135 3138 3140 3142 3144 3147 3149 3151 3152 3154 3157 3158 3159 3160 3160 3161 3161 3162 3163 3164 3164 3164 3164 3164 3165 3167 3168 3168 3168 3168 3168 3169 3169 3168 3169 3171 3172 3172 3172 3173 3174 3175
3136 3134 3133 3132 3131 3129 3128 3127 3125 3124 3123 3122 3121 3120 3119 3118 3117 3116 3115 3115 3114 3114 3114 3113 3113 3113 3113 3112 3113 3113 3113 3114 3114 3114 3116 3117 3118 3119 3121 3122 3124 3125 3126 3127 3129 3130 3133 3135 3137 3140 3143 3145 3147 3149 3151 3154 3156 3157 3158 3159 3160 3160 3161 3161 3162 3163 3163 3163 3163 3163 3165 3168 3168 3168 3168 3168 3168 3169 3168 3168 3170 3172 3172 3172 3173 3173 3174 3176
3134 3132 3131 3130 3128 3127 3126 3124 3123 3122 3121 3120 3119 3118 3117 3116 3115 3114 3113 3113 3112 3112 3111 3111 3111 3111 3111 3111 3111 3111 3112 3113 3112 3112 3114 3116 3116 3118 3119 3120 3122 3123 3125 3126 3128 3130 3132 3133 3135 3139 3142 3143 3146 3148 3150 3153 3155 3156 3156 3157 3159 3159 3159 3160 3161 3162 3162 3163 3163 3162 3165 3167 3167 3167 3168 3169 3168 3168 3167 3167 3170 3172 3172 3172 3173 3173 3174 3176
3132 3130 3129 3128 3126 3125 3123 3122 3121 3120 3119 3117 3116 3116 3115 3114 3113 3112 3111 3111 3110 3109 3109 3109 3108 3109 3109 3109 3108 3109 3111 3111 3110 3110 3112 3114 3115 3116 3117 3118 3120 3121 3124 3125 3127 3128 3130 3131 3134 3137 3141 3144 3146 3147 3149 3151 3152 3153 3155 3155 3157 3157 3158 3158 3159 3160 3161 3162 3162 3162 3164 3165 3166 3167 3167 3167 3167 3167 3167 3167 3170 3171 3171 3172 3173 3174 3174 3175
3130 3129 3127 3125 3124 3122 3121 3119 3118 3117 3116 3115 3114 3113 3112 3112 3111 3110 3109 3108 3108 3107 3107 3106 3106 3106 3107 3107 3106 3108 3110 3109 3108 3109 3110 3112 3113 3115 3116 3117 3118 3120 3122 3124 3125 3126 3128 3130 3134 3138 3141 3144 3145 3146 3148 3149 3149 3151 3152 3153 3154 3156 3156 3156 3157 3159 3160 3161 3161 3161 3163 3164 3165 3166 3166 3166 3167 3167 3167 3167 3169 3170 3171 3171 3172 3174 3175 3175
3129 3127 3125 3124 3122 3120 3119 3117 3115 3114 3113 3111 3110 3110 3109 3109 3108 3107 3107 3106 3105 3105 3104 3104 3103 3103 3104 3104 3104 3106 3108 3107 3107 3107 3108 3110 3112 3113 3114 3115 3117 3119 3121 3122 3123 3125 3127 3130 3134 3138 3140 3141 3143 3145 3146 3147 3148 3150 3151 3152 3152 3153 3155 3155 3155 3156 3158 3159 3160 3160 3162 3164 3164 3164 3162 3162 3165 3167 3167 3167 3169 3170 3170 3171 3172 3173 3174 3175
3128 3126 3124 3122 3120 3118 3116 3114 3113 3111 3110 3108 3107 3106 3106 3106 3105 3104 3104 3103 3103 3102 3102 3101 3101 3100 3100 3100 3103 3106 3106 3105 3104 3105 3106 3107 3110 3111 3112 3113 3115 3117 3119 3121 3122 3124 3127 3129 3133 3137 3138 3140 3142 3143 3143 3145 3146 3147 3149 3150 3150 3151 3152 3153 3154 3154 3156 3157 3159 3160 3161 3162 3163 3163 3160 3157 3161 3165 3166 3167 3168 3169 3170 3171 3171 3172 3173 3175
3127 3125 3123 3121 3119 3117 3114 3112 3111 3109 3107 3106 3104 3103 3102 3102 3101 3101 3101 3100 3100 3099 3099 3099 3098 3098 3096 3096 3102 3104 3102 3102 3102 3101 3102 3104 3107 3109 3109 3111 3113 3115 3117 3119 3121 3124 3126 3127 3131 3134 3137 3139 3140 3142 3142 3143 3145 3145 3146 3147 3148 3149 3149 3150 3152 3153 3154 3155 3157 3159 3160 3160 3160 3162 3160 3154 3158 3163 3165 3167 3168 3169 3170 3170 3171 3172 3173 3174
3126 3124 3122 3119 3117 3115 3113 3110 3109 3107 3105 3103 3101 3100 3099 3098 3097 3097 3097 3097 3097 3096 3096 3095 3095 3095 3092 3093 3100 3101 3099 3100 3099 3099 3100 3102 3105 3107 3108 3110 3112 3114 3115 3118 3120 3122 3124 3126 3129 3133 3135 3136 3138 3141 3141 3141 3143 3144 3144 3144 3144 3145 3145 3147 3149 3150 3152 3153 3156 3157 3157 3157 3157 3160 3158 3151 3154 3160 3163 3166 3167 3167 3168 3169 3171 3172 3172 3173
3125 3123 3121 3118 3116 3113 3111 3109 3106 3104 3103 3101 3099 3097 3096 3095 3093 3093 3093 3093 3093 3093 3093 3092 3092 3091 3089 3091 3097 3096 3095 3096 3096 3099 3100 3100 3103 3105 3107 3108 3110 3112 3114 3116 3118 3120 3123 3125 3128 3129 3131 3134 3136 3138 3138 3138 3140 3141 3141 3140 3141 3142 3142 3144 3145 3147 3148 3150 3154 3155 3155 3154 3154 3157 3155 3149 3151 3156 3159 3163 3165 3166 3167 3168 3169 3171 3172 3172
3124 3122 3120 3117 3115 3112 3109 3107 3104 3102 3100 3098 3096 3094 3093 3091 3090 3089 3088 3089 3089 3089 3089 3088 3088 3088 3087 3089 3092 3093 3093 3095 3097 3099 3099 3100 3101 3103 3106 3107 3109 3111 3113 3115 3117 3119 3121 3124 3126 3127 3129 3132 3133 3134 3136 3136 3136 3137 3138 3138 3139 3140 3141 3142 3143 3144 3145 3147 3150 3152 3152 3152 3152 3154 3152 3148 3150 3153 3157 3161 3164 3165 3166 3167 3168 3169 3171 3171
3123 3121 3119 3116 3113 3111 3108 3105 3102 3100 3098 3095 3093 3092 3090 3088 3086 3084 3085 3085 3085 3086 3085 3084 3084 3084 3085 3086 3088 3090 3091 3093 3095 3095 3096 3098 3100 3102 3104 3105 3107 3109 3112 3114 3116 3117 3119 3122 3124 3125 3127 3128 3130 3132 3133 3131 3131 3134 3135 3136 3137 3139 3140 3140 3139 3141 3143 3145 3147 3148 3151 3150 3150 3152 3149 3147 3151 3152 3155 3159 3162 3164 3165 3166 3166 3168 3169 3170
3121 3119 3117 3115 3112 3110 3107 3104 3101 3098 3095 3093 3090 3088 3087 3086 3083 3080 3081 3082 3081 3082 3081 3080 3080 3080 3081 3083 3084 3087 3088 3089 3092 3092 3094 3096 3098 3101 3102 3105 3107 3108 3110 3112 3113 3115 3117 3119 3122 3123 3124 3124 3125 3127 3125 3125 3128 3131 3132 3134 3136 3137 3138 3138 3136 3137 3139 3142 3144 3145 3148 3149 3150 3151 3148 3146 3149 3151 3155 3159 3161 3163 3164 3164 3165 3166 3168 3169
3119 3117 3115 3113 3111 3108 3105 3102 3099 3097 3094 3091 3089 3087 3084 3083 3081 3078 3077 3078 3077 3077 3078 3076 3075 3076 3078 3079 3080 3083 3084 3086 3088 3089 3091 3093 3096 3098 3100 3104 3106 3106 3108 3109 3110 3112 3114 3117 3118 3118 3116 3116 3118 3120 3121 3125 3129 3130 3131 3132 3134 3135 3135 3135 3134 3134 3136 3138 3140 3143 3145 3147 3148 3150 3148 3145 3146 3148 3154 3158 3160 3162 3162 3163 3163 3164 3167 3168
3117 3115 3113 3111 3109 3106 3104 3101 3097 3095 3091 3089 3086 3083 3080 3076 3075 3073 3071 3074 3074 3073 3073 3072 3070 3071 3075 3078 3078 3079 3080 3081 3082 3085 3088 3090 3094 3096 3097 3101 3104 3105 3104 3105 3107 3109 3112 3114 3111 3108 3109 3113 3116 3119 3122 3126 3129 3129 3129 3130 3132 3132 3133 3133 3131 3131 3135 3136 3137 3140 3143 3145 3146 3149 3149 3146 3144 3145 3150 3156 3158 3159 3160 3160 3161 3162 3165 3166
3116 3114 3112 3110 3108 3105 3102 3099 3096 3093 3090 3087 3083 3079 3076 3073 3071 3068 3064 3065 3070 3071 3067 3068 3067 3064 3070 3077 3077 3078 3078 3077 3077 3081 3085 3087 3090 3092 3093 3097 3100 3100 3100 3103 3107 3108 3111 3108 3102 3103 3109 3114 3117 3119 3122 3125 3127 3127 3127 3127 3129 3130 3130 3130 3128 3128 3133 3134 3134 3137 3140 3142 3144 3146 3146 3144 3143 3142 3145 3150 3154 3155 3156 3157 3158 3160 3162 3164
3115 3113 3110 3108 3106 3103 3101 3099 3095 3092 3090 3087 3083 3079 3077 3075 3073 3070 3062 3056 3060 3066 3063 3062 3063 3060 3065 3073 3075 3076 3074 3074 3075 3077 3081 3085 3086 3087 3090 3093 3094 3095 3098 3102 3104 3106 3106 3099 3096 3103 3110 3113 3116 3118 3121 3122 3124 3125 3124 3124 3124 3126 3127 3128 3127 3126 3130 3131 3131 3133 3136 3138 3141 3144 3144 3140 3139 3140 3140 3144 3148 3150 3152 3154 3155 3157 3159 3161
3113 3111 3108 3106 3104 3102 3100 3098 3095 3091 3089 3086 3082 3079 3077 3075 3073 3070 3065 3054 3050 3057 3057 3056 3057 3057 3061 3068 3072 3072 3068 3071 3074 3074 3078 3081 3082 3085 3087 3089 3090 3093 3095 3097 3098 3099 3096 3090 3095 3105 3109 3111 3114 3115 3118 3119 3121 3122 3122 3123 3121 3122 3124 3124 3125 3124 3126 3129 3129 3130 3133 3135 3137 3140 3141 3138 3137 3137 3138 3140 3144 3147 3149 3151 3153 3155 3157 3158
3111 3109 3106 3104 3102 3100 3097 3096 3094 3090 3087 3084 3082 3079 3077 3075 3072 3067 3063 3054 3047 3050 3051 3050 3050 3053 3057 3064 3069 3067 3064 3068 3071 3072 3075 3077 3079 3082 3084 3086 3088 3090 3091 3092 3094 3093 3090 3090 3097 3104 3106 3108 3110 3112 3114 3116 3117 3118 3119 3120 3119 3119 3120 3120 3123 3124 3124 3126 3127 3128 3130 3131 3133 3136 3138 3138 3136 3135 3136 3139 3141 3143 3146 3149 3151 3153 3155 3155
3108 3106 3104 3101 3100 3098 3095 3093 3092 3089 3086 3084 3081 3080 3077 3074 3072 3066 3060 3053 3047 3047 3047 3045 3046 3050 3055 3060 3062 3062 3063 3064 3066 3070 3073 3074 3077 3079 3081 3084 3085 3085 3087 3090 3092 3090 3089 3093 3098 3100 3102 3105 3106 3108 3110 3111 3114 3115 3114 3116 3117 3118 3118 3117 3119 3122 3122 3121 3122 3125 3126 3127 3129 3131 3133 3135 3135 3133 3133 3136 3137 3140 3144 3147 3149 3151 3153 3154
3106 3104 3101 3099 3096 3095 3093 3090 3089 3088 3085 3083 3080 3078 3076 3073 3071 3067 3062 3055 3049 3047 3046 3046 3048 3050 3052 3054 3055 3060 3061 3057 3062 3069 3070 3072 3075 3077 3079 3081 3081 3083 3085 3089 3091 3087 3087 3093 3097 3097 3098 3101 3103 3104 3105 3108 3110 3110 3110 3114 3115 3116 3117 3116 3115 3118 3118 3117 3118 3120 3122 3123 3125 3127 3130 3132 3133 3132 3130 3132 3134 3136 3140 3143 3145 3148 3150 3151
3105 3102 3099 3096 3093 3092 3091 3089 3087 3085 3083 3081 3079 3076 3074 3072 3070 3068 3064 3058 3052 3050 3050 3049 3051 3052 3052 3053 3054 3057 3055 3052 3060 3066 3066 3069 3073 3075 3076 3076 3078 3080 3084 3088 3086 3081 3084 3090 3093 3094 3096 3097 3098 3099 3101 3105 3106 3105 3109 3113 3113 3114 3114 3114 3114 3114 3115 3116 3116 3115 3116 3119 3120 3122 3126 3128 3130 3130 3127 3128 3131 3133 3135 3138 3141 3144 3147 3148
3103 3100 3098 3095 3092 3089 3088 3086 3085 3083 3081 3079 3076 3074 3072 3071 3070 3068 3067 3064 3056 3053 3054 3053 3053 3052 3052 3052 3052 3053 3052 3053 3058 3061 3063 3067 3069 3071 3072 3072 3076 3078 3081 3083 3077 3076 3081 3084 3087 3091 3093 3093 3093 3094 3098 3102 3103 3104 3109 3111 3112 3113 3112 3112 3112 3112 3113 3114 3112 3112 3113 3115 3116 3118 3122 3124 3126 3127 3125 3123 3126 3129 3131 3135 3137 3140 3144 3146
3101 3099 3096 3094 3091 3088 3085 3084 3082 3081 3079 3075 3073 3072 3070 3070 3069 3067 3070 3067 3057 3053 3055 3053 3052 3050 3049 3050 3052 3053 3054 3055 3058 3059 3063 3064 3065 3068 3068 3070 3076 3078 3079 3078 3075 3078 3081 3081 3085 3088 3088 3088 3090 3093 3097 3100 3101 3104 3108 3109 3110 3111 3111 3112 3111 3110 3112 3110 3107 3109 3112 3112 3113 3114 3116 3119 3121 3124 3124 3121 3122 3126 3129 3131 3134 3137 3141 3144
3099 3097 3094 3092 3090 3088 3085 3082 3080 3078 3076 3073 3072 3070 3069 3068 3067 3068 3071 3065 3056 3054 3054 3052 3052 3050 3048 3049 3051 3053 3054 3055 3057 3059 3061 3061 3063 3067 3068 3071 3075 3076 3077 3076 3075 3078 3079 3081 3084 3084 3084 3087 3090 3092 3095 3097 3100 3103 3105 3106 3107 3109 3109 3110 3109 3110 3110 3105 3103 3106 3109 3110 3110 3109 3110 3113 3114 3118 3122 3121 3118 3122 3126 3128 3130 3134 3137 3140
3098 3095 3093 3090 3087 3086 3084 3081 3079 3076 3074 3072 3071 3069 3067 3067 3067 3069 3068 3062 3057 3055 3052 3050 3051 3050 3049 3049 3050 3053 3054 3054 3055 3058 3059 3059 3061 3064 3066 3069 3071 3072 3074 3073 3073 3076 3078 3079 3079 3079 3081 3085 3088 3089 3091 3094 3098 3101 3102 3103 3104 3105 3106 3106 3107 3109 3106 3102 3102 3103 3106 3108 3107 3106 3107 3107 3109 3113 3118 3118 3115 3117 3122 3124 3127 3129 3133 3137
3096 3093 3091 3088 3086 3084 3082 3080 3078 3074 3072 3071 3070 3067 3066 3067 3068 3068 3066 3061 3059 3058 3054 3052 3049 3048 3050 3050 3051 3052 3054 3054 3054 3054 3057 3058 3058 3059 3061 3062 3064 3067 3067 3066 3070 3074 3074 3073 3074 3077 3079 3081 3084 3086 3087 3090 3094 3096 3098 3101 3102 3102 3103 3103 3103 3102 3100 3100 3103 3104 3105 3104 3102 3103 3105 3106 3109 3111 3113 3115 3113 3114 3118 3121 3124 3127 3130 3134
3093 3091 3089 3087 3084 3082 3080 3078 3075 3073 3071 3070 3068 3067 3067 3069 3069 3067 3066 3064 3062 3060 3058 3055 3051 3050 3051 3051 3050 3050 3049 3051 3054 3054 3055 3057 3057 3057 3059 3061 3063 3063 3062 3066 3070 3070 3069 3069 3072 3073 3073 3075 3078 3080 3081 3084 3088 3091 3093 3095 3097 3097 3099 3100 3099 3098 3099 3100 3102 3105 3105 3100 3099 3101 3102 3105 3109 3110 3111 3113 3111 3112 3116 3119 3121 3125 3128 3131
3091 3088 3087 3085 3082 3080 3078 3075 3073 3072 3071 3069 3067 3067 3069 3070 3068 3066 3065 3064 3062 3059 3057 3055 3051 3050 3051 3052 3053 3051 3046 3045 3050 3052 3052 3054 3056 3055 3056 3059 3061 3062 3064 3067 3067 3065 3064 3064 3062 3063 3067 3070 3073 3075 3078 3081 3084 3086 3088 3091 3091 3090 3092 3095 3095 3096 3098 3099 3100 3105 3102 3096 3095 3097 3099 3104 3107 3107 3109 3111 3110 3109 3112 3116 3118 3122 3126 3128
3090 3086 3084 3083 3081 3078 3076 3074 3072 3072 3071 3069 3068 3069 3070 3070 3068 3067 3065 3063 3061 3059 3057 3056 3055 3053 3051 3051 3051 3051 3049 3046 3045 3044 3045 3050 3053 3053 3054 3055 3058 3062 3064 3064 3063 3062 3061 3057 3056 3061 3065 3068 3069 3072 3077 3080 3081 3083 3087 3088 3085 3085 3089 3092 3093 3094 3096 3097 3097 3099 3096 3093 3095 3096 3098 3103 3105 3105 3107 3109 3110 3107 3108 3113 3115 3118 3122 3124
3089 3085 3081 3079 3078 3077 3075 3074 3073 3073 3072 3070 3070 3071 3071 3070 3069 3068 3066 3063 3062 3061 3058 3057 3057 3056 3052 3048 3047 3048 3050 3048 3045 3042 3041 3043 3047 3052 3054 3054 3056 3060 3061 3060 3058 3059 3058 3054 3057 3062 3063 3064 3067 3070 3074 3075 3076 3079 3082 3080 3080 3086 3090 3091 3092 3092 3095 3097 3096 3095 3093 3093 3096 3095 3097 3100 3101 3103 3104 3106 3107 3104 3104 3108 3110 3114 3118 3120
3087 3083 3080 3078 3076 3074 3074 3074 3073 3073 3071 3070 3071 3072 3071 3069 3068 3068 3066 3064 3063 3062 3061 3059 3058 3057 3054 3050 3049 3049 3048 3046 3045 3044 3041 3040 3044 3049 3050 3052 3057 3060 3061 3061 3058 3056 3055 3053 3055 3058 3057 3059 3064 3068 3071 3073 3073 3073 3073 3075 3082 3088 3090 3090 3090 3090 3093 3095 3092 3090 3089 3090 3091 3090 3093 3096 3096 3098 3099 3101 3104 3103 3101 3103 3106 3110 3113 3117
3084 3081 3078 3077 3075 3072 3073 3073 3071 3072 3071 3070 3071 3071 3070 3069 3068 3067 3066 3064 3063 3062 3062 3061 3059 3058 3057 3054 3051 3050 3050 3048 3046 3045 3043 3042 3041 3040 3039 3042 3045 3047 3050 3054 3054 3054 3053 3051 3051 3053 3053 3056 3062 3065 3066 3068 3070 3069 3070 3075 3080 3082 3083 3085 3086 3086 3090 3091 3087 3085 3085 3084 3084 3083 3086 3089 3089 3092 3094 3097 3101 3102 3100 3100 3104 3107 3110 3115
3082 3080 3078 3077 3076 3074 3073 3072 3071 3071 3070 3070 3071 3070 3069 3069 3067 3066 3065 3064 3064 3062 3062 3061 3059 3058 3058 3056 3053 3051 3052 3051 3049 3048 3047 3044 3040 3038 3039 3038 3036 3037 3040 3043 3045 3048 3050 3049 3047 3047 3049 3053 3057 3058 3058 3060 3064 3067 3070 3072 3075 3077 3078 3080 3081 3081 3084 3085 3084 3082 3080 3078 3078 3078 3079 3081 3083 3087 3090 3092 3095 3099 3099 3099 3102 3105 3108 3112
3081 3079 3078 3077 3075 3073 3073 3072 3071 3071 3069 3070 3070 3069 3069 3068 3066 3065 3065 3065 3064 3062 3061 3061 3059 3058 3057 3056 3055 3052 3051 3051 3050 3050 3049 3047 3042 3038 3038 3037 3035 3037 3039 3039 3040 3043 3045 3046 3044 3041 3045 3047 3047 3047 3048 3052 3057 3061 3064 3066 3068 3073 3076 3077 3079 3079 3080 3081 3080 3080 3078 3074 3074 3074 3073 3075 3079 3082 3086 3088 3091 3094 3096 3097 3100 3102 3104 3109
3079 3078 3077 3075 3073 3071 3071 3070 3070 3070 3070 3070 3070 3068 3068 3067 3065 3064 3064 3063 3062 3062 3062 3060 3059 3058 3057 3056 3055 3052 3050 3049 3049 3049 3049 3048 3046 3040 3036 3037 3037 3036 3035 3034 3037 3040 3041 3042 3040 3037 3039 3041 3039 3041 3046 3050 3054 3056 3059 3061 3064 3068 3071 3073 3075 3075 3077 3078 3076 3077 3076 3071 3071 3071 3069 3072 3075 3077 3082 3085 3088 3092 3093 3094 3098 3100 3102 3107
3077 3075 3074 3073 3070 3069 3068 3068 3068 3069 3069 3069 3068 3067 3067 3066 3065 3065 3064 3062 3062 3062 3061 3060 3059 3058 3057 3056 3054 3052 3050 3048 3048 3049 3047 3045 3045 3043 3040 3041 3040 3039 3038 3034 3034 3036 3037 3038 3037 3034 3034 3037 3039 3042 3045 3049 3054 3057 3058 3059 3061 3063 3065 3066 3068 3070 3074 3076 3075 3075 3074 3070 3068 3066 3064 3067 3072 3074 3079 3083 3086 3090 3091 3092 3097 3099 3101 3105
3074 3074 3072 3070 3068 3067 3067 3068 3068 3068 3068 3067 3067 3066 3066 3065 3065 3064 3063 3062 3062 3061 3060 3059 3059 3057 3056 3055 3053 3052 3050 3048 3047 3047 3045 3042 3041 3042 3043 3042 3040 3039 3038 3035 3033 3034 3033 3034 3035 3032 3031 3033 3037 3040 3042 3046 3051 3054 3054 3056 3058 3059 3061 3063 3066 3069 3071 3073 3073 3074 3072 3070 3068 3064 3062 3066 3071 3073 3078 3082 3085 3088 3089 3091 3094 3096 3099 3104
3072 3072 3071 3070 3067 3067 3068 3068 3068 3068 3068 3067 3066 3065 3065 3065 3064 3063 3062 3062 3061 3061 3059 3059 3058 3056 3055 3053 3053 3052 3050 3048 3046 3044 3043 3041 3038 3039 3042 3041 3040 3040 3039 3039 3039 3038 3035 3033 3033 3031 3030 3031 3033 3035 3036 3039 3044 3047 3049 3052 3054 3056 3059 3063 3066 3068 3068 3069 3071 3072 3071 3069 3069 3068 3067 3069 3071 3073 3077 3080 3083 3085 3086 3088 3091 3094 3097 3101
3070 3068 3068 3068 3068 3067 3067 3068 3067 3066 3066 3064 3063 3064 3064 3064 3063 3062 3062 3061 3061 3060 3058 3057 3057 3055 3053 3052 3051 3051 3050 3048 3045 3043 3041 3039 3035 3036 3039 3039 3038 3039 3038 3039 3041 3040 3036 3033 3032 3032 3030 3029 3029 3029 3030 3032 3037 3042 3046 3049 3052 3055 3057 3060 3063 3065 3065 3066 3068 3070 3069 3069 3070 3070 3070 3070 3071 3074 3077 3079 3081 3083 3084 3085 3088 3092 3095 3098
3070 3066 3064 3064 3065 3066 3065 3066 3065 3063 3063 3063 3062 3063 3063 3062 3062 3062 3061 3060 3059 3058 3056 3056 3055 3054 3053 3052 3050 3050 3049 3048 3045 3042 3040 3038 3035 3033 3035 3036 3037 3037 3036 3037 3038 3036 3033 3032 3032 3031 3029 3027 3026 3026 3029 3032 3034 3038 3043 3047 3049 3053 3055 3057 3059 3060 3062 3064 3066 3067 3068 3068 3069 3069 3070 3072 3073 3075 3077 3077 3078 3081 3083 3085 3088 3092 3095 3097
3071 3069 3065 3062 3063 3064 3064 3064 3064 3062 3063 3063 3062 3062 3062 3061 3060 3060 3060 3060 3058 3056 3055 3054 3054 3053 3052 3051 3050 3049 3048 3046 3045 3042 3039 3037 3035 3032 3032 3033 3034 3035 3034 3035 3035 3033 3030 3030 3030 3029 3028 3027 3025 3024 3028 3030 3031 3033 3039 3043 3046 3049 3052 3053 3054 3057 3060 3062 3063 3064 3066 3067 3067 3069 3070 3071 3073 3075 3075 3076 3077 3079 3082 3085 3087 3091 3094 3097
3070 3069 3067 3065 3063 3063 3062 3062 3062 3062 3062 3062 3061 3061 3061 3060 3059 3059 3058 3058 3057 3056 3054 3052 3052 3053 3052 3051 3049 3048 3047 3045 3043 3041 3039 3037 3034 3031 3031 3032 3033 3034 3034 3034 3034 3032 3028 3027 3028 3026 3024 3023 3023 3023 3025 3028 3029 3031 3035 3039 3043 3045 3048 3050 3052 3055 3059 3060 3061 3063 3064 3065 3067 3068 3070 3071 3073 3074 3073 3074 3076 3078 3081 3084 3087 3089 3092 3095
3069 3066 3066 3065 3063 3062 3061 3061 3061 3060 3060 3060 3059 3060 3059 3058 3058 3058 3057 3057 3057 3055 3054 3052 3051 3052 3051 3051 3049 3048 3046 3044 3041 3040 3039 3037 3035 3033 3032 3031 3031 3032 3033 3033 3032 3030 3026 3025 3024 3022 3020 3020 3020 3020 3022 3026 3029 3030 3032 3036 3039 3042 3045 3048 3051 3055 3057 3059 3061 3062 3062 3064 3066 3067 3069 3072 3072 3072 3072 3074 3076 3078 3080 3083 3086 3088 3090 3093
3068 3064 3063 3062 3061 3061 3061 3061 3060 3060 3059 3058 3058 3058 3058 3057 3057 3057 3056 3056 3055 3054 3053 3052 3050 3050 3050 3049 3048 3047 3046 3043 3041 3039 3038 3037 3036 3035 3034 3034 3032 3030 3030 3032 3031 3028 3026 3024 3022 3021 3019 3019 3019 3021 3022 3025 3027 3028 3030 3034 3036 3040 3043 3047 3050 3052 3055 3057 3060 3061 3061 3063 3065 3067 3070 3072 3071 3070 3072 3074 3076 3079 3081 3082 3085 3087 3088 3091
3067 3064 3062 3060 3059 3059 3059 3060 3059 3059 3058 3058 3057 3057 3056 3055 3055 3055 3054 3054 3054 3053 3052 3051 3049 3048 3048 3047 3047 3045 3044 3042 3040 3039 3038 3036 3036 3035 3034 3034 3034 3031 3029 3030 3030 3028 3025 3023 3021 3020 3020 3019 3020 3022 3024 3025 3026 3026 3027 3030 3033 3036 3040 3043 3046 3049 3053 3055 3058 3059 3060 3061 3064 3066 3069 3071 3071 3069 3071 3074 3077 3079 3081 3082 3085 3087 3089 3092
3065 3063 3062 3060 3058 3058 3058 3058 3058 3058 3057 3057 3056 3056 3055 3054 3054 3054 3052 3051 3052 3052 3051 3050 3048 3046 3046 3045 3045 3044 3042 3040 3039 3037 3036 3035 3035 3035 3033 3032 3034 3033 3030 3030 3030 3028 3026 3025 3023 3022 3022 3020 3020 3023 3025 3025 3026 3025 3025 3028 3031 3034 3038 3041 3044 3048 3051 3053 3055 3058 3059 3060 3062 3064 3066 3069 3069 3069 3071 3074 3076 3078 3080 3082 3085 3088 3091 3094